W5IC Weather Reports


Display with metric or nautical units.
time (UTC)temp
F
wind
direction
speed
MPH
gust
MPH
rain 1hr
in
rain 24hr
in
rain mn
in
humidity
%
barometer
mb
20260505022123 69 228 0.0 1.0 0.00 0.00 0.00 66 1012.6
20260505021624 69 229 0.0 1.0 0.00 0.00 0.00 65 1012.6
20260505021124 69 229 0.0 2.0 0.00 0.00 0.00 64 1012.8
20260505020624 70 229 0.0 3.0 0.00 0.00 0.00 64 1012.7
20260505020604 70 229 0.0 3.0 0.00 0.00 0.00 63 1012.7
20260505015624 70 201 0.0 4.0 0.00 0.00 0.00 63 1012.7
20260505015124 70 185 0.0 4.0 0.00 0.00 0.00 62 1012.5
20260505015028 70 206 0.0 2.0 0.00 0.00 0.00 62 1012.4
20260505014601 71 198 0.0 3.0 0.00 0.00 0.00 61 1012.5
20260505013621 71 100 0.0 4.0 0.00 0.00 0.00 60 1012.5
20260505013119 71 180 1.0 4.0 0.00 0.00 0.00 60 1012.5
20260505012619 71 177 0.0 3.0 0.00 0.00 0.00 59 1012.4
20260505012118 72 200 0.0 5.0 0.00 0.00 0.00 58 1012.3
20260505011616 72 209 1.0 6.0 0.00 0.00 0.00 58 1012.2
20260505011116 72 181 1.0 6.0 0.00 0.00 0.00 57 1012.2
20260505010616 72 218 0.0 2.0 0.00 0.00 0.00 56 1012.1
20260505010116 72 192 1.0 4.0 0.00 0.00 0.00 56 1012.2
20260505005613 73 200 1.0 4.0 0.00 0.00 0.00 55 1012.3
20260505005114 73 232 1.0 4.0 0.00 0.00 0.00 54 1012.3
20260505005056 73 210 1.0 4.0 0.00 0.00 0.00 54 1012.0
20260505004112 73 211 1.0 4.0 0.00 0.00 0.00 53 1012.1
20260505003610 74 221 1.0 4.0 0.00 0.00 0.00 52 1012.1
20260505003106 74 221 1.0 5.0 0.00 0.00 0.00 51 1012.2
20260505002606 74 244 2.0 5.0 0.00 0.00 0.00 51 1012.3
20260505002106 74 221 1.0 5.0 0.00 0.00 0.00 51 1012.5
20260505001606 74 216 1.0 4.0 0.00 0.00 0.00 51 1012.4
20260505001104 75 213 1.0 4.0 0.00 0.00 0.00 50 1012.5
20260505000605 75 207 1.0 7.0 0.00 0.00 0.00 50 1012.6
20260505000104 76 206 1.0 7.0 0.00 0.00 0.00 49 1012.7
20260504235605 76 115 1.0 4.0 0.00 0.00 0.00 50 1012.8
20260504235106 76 221 1.0 8.0 0.00 0.00 0.00 50 1012.8
20260504234606 76 166 2.0 8.0 0.00 0.00 0.00 49 1012.9
20260504234104 76 187 1.0 5.0 0.00 0.00 0.00 49 1012.9
20260504233604 76 157 1.0 4.0 0.00 0.00 0.00 49 1012.8
20260504233105 76 202 1.0 6.0 0.00 0.00 0.00 49 1012.8
20260504232605 77 179 2.0 6.0 0.00 0.00 0.00 47 1012.8
20260504232105 77 178 2.0 6.0 0.00 0.00 0.00 47 1012.9
20260504231604 77 239 1.0 6.0 0.00 0.00 0.00 47 1013.0
20260504231101 77 175 2.0 6.0 0.00 0.00 0.00 47 1012.9
20260504230555 77 111 2.0 7.0 0.00 0.00 0.00 46 1013.0
20260504230049 78 210 2.0 8.0 0.00 0.00 0.00 46 1012.9
20260504225548 78 231 1.0 8.0 0.00 0.00 0.00 46 1012.9
20260504225049 78 197 2.0 6.0 0.00 0.00 0.00 45 1013.0
20260504225041 78 167 2.0 7.0 0.00 0.00 0.00 46 1013.1
20260504224044 79 212 2.0 7.0 0.00 0.00 0.00 45 1013.3
20260504223544 79 92 1.0 4.0 0.00 0.00 0.00 46 1013.2
20260504223044 79 203 2.0 7.0 0.00 0.00 0.00 46 1013.3
20260504222541 79 279 2.0 12.0 0.00 0.00 0.00 45 1013.2
20260504222043 80 189 1.0 12.0 0.00 0.00 0.00 45 1013.2
20260504222034 80 132 1.0 6.0 0.00 0.00 0.00 46 1013.3
20260504221039 80 202 2.0 6.0 0.00 0.00 0.00 44 1013.3
20260504220540 80 90 1.0 5.0 0.00 0.00 0.00 45 1013.4
20260504220039 80 136 1.0 5.0 0.00 0.00 0.00 46 1013.4
20260504215537 81 87 2.0 7.0 0.00 0.00 0.00 45 1013.5
20260504215037 80 184 2.0 8.0 0.00 0.00 0.00 44 1013.7
20260504215023 80 217 1.0 8.0 0.00 0.00 0.00 46 1013.6
20260504214036 80 98 2.0 7.0 0.00 0.00 0.00 47 1013.6
20260504213536 80 186 2.0 7.0 0.00 0.00 0.00 44 1013.7
20260504213521 80 122 2.0 6.0 0.00 0.00 0.00 47 1013.6
20260504212534 80 214 2.0 6.0 0.00 0.00 0.00 45 1013.6
20260504212033 80 214 2.0 8.0 0.00 0.00 0.00 44 1013.7
20260504211532 80 174 3.0 11.0 0.00 0.00 0.00 45 1013.7
20260504211032 80 219 2.0 11.0 0.00 0.00 0.00 45 1013.7
20260504210532 80 203 1.0 4.0 0.00 0.00 0.00 45 1013.8
20260504210033 80 229 2.0 6.0 0.00 0.00 0.00 45 1013.8
20260504205531 80 121 2.0 6.0 0.00 0.00 0.00 46 1014.0
20260504205032 80 163 2.0 7.0 0.00 0.00 0.00 44 1014.2
20260504204531 80 217 3.0 8.0 0.00 0.00 0.00 44 1014.4
20260504204032 80 246 2.0 8.0 0.00 0.00 0.00 44 1014.4
20260504203532 80 239 2.0 7.0 0.00 0.00 0.00 44 1014.3
20260504203032 80 178 2.0 7.0 0.00 0.00 0.00 45 1014.4
20260504202533 80 252 2.0 7.0 0.00 0.00 0.00 44 1014.6
20260504202526 80 54 3.0 12.0 0.00 0.00 0.00 44 1014.7
20260504201530 80 238 3.0 12.0 0.00 0.00 0.00 43 1014.9
20260504201028 80 204 2.0 6.0 0.00 0.00 0.00 45 1014.6
20260504200528 80 217 2.0 7.0 0.00 0.00 0.00 45 1014.7
20260504200022 80 154 2.0 7.0 0.00 0.00 0.00 45 1014.9
20260504195522 80 66 2.0 6.0 0.00 0.00 0.00 46 1014.8
20260504195513 80 229 3.0 9.0 0.00 0.00 0.00 44 1015.1
20260504194522 80 88 3.0 9.0 0.00 0.00 0.00 45 1015.1
20260504194022 80 219 2.0 7.0 0.00 0.00 0.00 43 1015.3
20260504193522 80 191 2.0 9.0 0.00 0.00 0.00 42 1015.3
20260504193446 80 231 3.0 11.0 0.00 0.00 0.00 42 1015.4
20260504193222 80 207 3.0 9.0 0.00 0.00 0.00 45 1015.4
20260504191522 80 191 2.0 8.0 0.00 0.00 0.00 44 1015.6
20260504191022 80 223 3.0 8.0 0.00 0.00 0.00 46 1015.8
20260504190723 80 178 3.0 12.0 0.00 0.00 0.00 46 1015.8
20260504185520 80 173 2.0 9.0 0.00 0.00 0.00 45 1015.8
20260504185019 80 125 2.0 8.0 0.00 0.00 0.00 46 1015.7
20260504184521 80 271 2.0 6.0 0.00 0.00 0.00 46 1015.8
20260504184513 79 137 2.0 6.0 0.00 0.00 0.00 45 1015.7
20260504183520 79 176 2.0 8.0 0.00 0.00 0.00 44 1015.8
20260504183020 80 236 2.0 8.0 0.00 0.00 0.00 44 1016.0
20260504182519 80 67 2.0 8.0 0.00 0.00 0.00 46 1016.0
20260504182020 79 187 2.0 8.0 0.00 0.00 0.00 45 1016.1
20260504181519 79 215 2.0 6.0 0.00 0.00 0.00 44 1016.2
20260504181020 79 178 2.0 8.0 0.00 0.00 0.00 45 1016.3
20260504180520 79 219 2.0 8.0 0.00 0.00 0.00 45 1016.5
20260504180020 79 216 3.0 8.0 0.00 0.00 0.00 47 1016.4
20260504175519 78 226 3.0 8.0 0.00 0.00 0.00 44 1016.5
20260504175020 78 260 3.0 7.0 0.00 0.00 0.00 44 1016.5
20260504174520 78 211 3.0 12.0 0.00 0.00 0.00 43 1016.5
20260504174018 78 157 3.0 12.0 0.00 0.00 0.00 46 1016.6
20260504173520 78 228 2.0 9.0 0.00 0.00 0.00 45 1016.6
20260504173014 79 249 2.0 9.0 0.00 0.00 0.00 44 1016.6
20260504172513 79 192 2.0 5.0 0.00 0.00 0.00 45 1016.7
20260504172013 79 201 1.0 5.0 0.00 0.00 0.00 48 1016.7
20260504171514 78 200 2.0 7.0 0.00 0.00 0.00 45 1016.8
20260504171012 78 188 2.0 7.0 0.00 0.00 0.00 45 1016.9
20260504170511 78 263 1.0 5.0 0.00 0.00 0.00 46 1016.8
20260504150935 74 224 1.0 6.0 0.00 0.00 0.00 55 1017.6
20260504150435 74 275 1.0 6.0 0.00 0.00 0.00 56 1017.5
20260504140929 69 258 1.0 5.0 0.00 0.00 0.00 66 1017.4
20260504140424 68 197 1.0 6.0 0.00 0.00 0.00 68 1017.6
20260504130407 61 213 0.0 1.0 0.00 0.00 0.00 91 1017.5
20260504110408 53 244 0.0 0.0 0.00 0.00 0.00 91 1016.7
20260504100407 54 244 0.0 0.0 0.00 0.00 0.00 91 1016.7
20260504081333 56 244 0.0 0.0 0.00 0.00 0.00 88 1017.1
20260504080832 56 244 0.0 0.0 0.00 0.00 0.00 88 1017.2
20260504080802 56 244 0.0 0.0 0.00 0.00 0.00 88 1017.1
20260504070332 58 244 0.0 0.0 0.00 0.00 0.00 85 1017.4
20260504070240 58 244 0.0 0.0 0.00 0.00 0.00 84 1017.2
20260504050332 60 244 0.0 0.0 0.00 0.00 0.00 80 1018.0
20260504045832 60 244 0.0 0.0 0.00 0.00 0.00 79 1018.1
20260504045331 60 244 0.0 0.0 0.00 0.00 0.00 79 1018.0
20260504045227 60 244 0.0 0.0 0.00 0.00 0.00 79 1018.2
20260504044332 60 244 0.0 0.0 0.00 0.00 0.00 78 1018.2
20260504043831 60 244 0.0 0.0 0.00 0.00 0.00 77 1018.3
20260504043331 61 244 0.0 0.0 0.00 0.00 0.00 77 1018.4
20260504042829 61 244 0.0 0.0 0.00 0.00 0.00 78 1018.4
20260504042329 60 244 0.0 0.0 0.00 0.00 0.00 77 1018.3
20260504041826 60 244 0.0 0.0 0.00 0.00 0.00 77 1018.4
20260504041325 60 244 0.0 0.0 0.00 0.00 0.00 77 1018.2
20260504040825 60 244 0.0 0.0 0.00 0.00 0.00 76 1018.2
20260504040325 60 244 0.0 0.0 0.00 0.00 0.00 76 1018.3
20260504040301 61 244 0.0 0.0 0.00 0.00 0.00 75 1018.3
20260504035321 61 244 0.0 0.0 0.00 0.00 0.00 75 1018.5
20260504034820 61 244 0.0 1.0 0.00 0.00 0.00 75 1018.3
20260504034318 61 244 0.0 1.0 0.00 0.00 0.00 75 1018.3
20260504033818 62 244 0.0 0.0 0.00 0.00 0.00 75 1018.3
20260504033317 62 244 0.0 0.0 0.00 0.00 0.00 74 1018.3
20260504032817 62 244 0.0 0.0 0.00 0.00 0.00 73 1018.3
20260504032316 62 244 0.0 0.0 0.00 0.00 0.00 72 1018.2
20260504031817 62 244 0.0 0.0 0.00 0.00 0.00 72 1018.4
20260504031317 62 244 0.0 0.0 0.00 0.00 0.00 72 1018.2
20260504030814 62 244 0.0 0.0 0.00 0.00 0.00 71 1018.3
20260504030315 62 244 0.0 0.0 0.00 0.00 0.00 71 1018.4
20260504025815 63 244 0.0 0.0 0.00 0.00 0.00 70 1018.3
20260504025413 63 244 0.0 0.0 0.00 0.00 0.00 69 1018.3
20260504025337 63 244 0.0 0.0 0.00 0.00 0.00 69 1018.3
20260504024224 64 244 0.0 0.0 0.00 0.00 0.00 68 1018.2
20260504023315 64 244 0.0 0.0 0.00 0.00 0.00 67 1018.1
20260504022815 64 244 0.0 0.0 0.00 0.00 0.00 66 1018.0